Regional Weather Roundup
Issued by NWS Jackson, KY

Home | Current Version | Previous Version | Graphics & Text | Print | Product List | Glossary On
Versions: 1 2 3 4 5 6 7 8 9 10 11 12 13 14 15 16 17 18 19 20 21 22 23 24 25 26 27 28 29 30 31 32 33 34 35 36 37 38 39 40 41 42 43 44 45 46 47 48 49 50
000
ASUS43 KJKL 090710
RWRJKL

EAST KENTUCKY HOURLY WEATHER ROUNDUP
NATIONAL WEATHER SERVICE JACKSON KY
200 AM EST FRI DEC 09 2016

NOTE: "FAIR" INDICATES FEW OR NO CLOUDS BELOW 12,000 FEET WITH
NO SIGNIFICANT WEATHER AND/OR OBSTRUCTIONS TO VISIBILITY.

* THESE REPORTS ARE NOT UNDER NWS QUALITY CONTROL AND MAY NOT
  REPORT WEATHER SUCH AS PRECIPITATION AND FOG.

KYZ079-080-083-085-087-088-110-112-115-119-120-090800
...EASTERN KENTUCKY...

CITY           SKY/WX    TMP DP  RH WIND       PRES   REMARKS
JACKSON        CLOUDY    23  13  65 VRB7      30.41R WCI  15
LONDON         CLOUDY    23  13  65 NW8       30.44R WCI  14
SOMERSET*      CLOUDY    25  14  63 N7        30.48S WCI  17
MONTICELLO*    CLOUDY    25  16  68 NW7       30.49R WCI  17
MIDDLESBORO*   MOCLDY    27  16  65 NW10      30.42R WCI  17
HARLAN APT*    CLOUDY    27  16  63 W3        30.39R
PIKE CO APT*   CLOUDY    24  14  67 W10       30.37R WCI  13
BIG SANDY APT* CLOUDY    26  16  67 NW6       30.39R WCI  19
MOREHEAD APT*  FLURRIES  23  12  63 NW14      30.46R WCI  11
ASHLAND*       CLOUDY    27  16  63 NW8G16    30.43R WCI  18
$$

KYZ035-036-041-042-044-050-067-078-099-090800
...CENTRAL KENTUCKY...

CITY           SKY/WX    TMP DP  RH WIND       PRES   REMARKS
MT STERLING*   FLURRIES  23  18  80 N6        30.46S WCI  16
FLEMING/MASON* FLURRIES  22  14  72 W10       30.45S WCI  11
DANVILLE*      CLOUDY    23  14  68 N9        30.48S WCI  13
LEXINGTON      LGT SNOW  23  16  74 NW9       30.46S WCI  13
FRANKFORT      FLURRIES  24  14  65 W6        30.47R WCI  17
LOUISVILLE     FLURRIES  25  11  55 N15       30.51S WCI  13
LEBANON*       MIX PCPN  25  14  63 NW6       30.49R WCI  18
GLASGOW*       CLOUDY    26  16  67 N6        30.50S WCI  19
BOWLING GREEN  CLOUDY    27  15  61 N9G16     30.53S WCI  18
$$

KYZ091>093-OHZ055-061-077-WVZ005-015-034-035-042-090800
...SOUTHERN OHIO/WEST VIRGINIA...

CITY           SKY/WX    TMP DP  RH WIND       PRES   REMARKS
COVINGTON      LGT SNOW  22  16  78 NW9       30.45S WCI  12
COLUMBUS       LGT SNOW  21  16  81 W14       30.38R WCI   8
DAYTON         PTCLDY    19  13  77 W16       30.40R WCI   4
WILMINGTON     CLEAR     19  13  77 W12       30.40R WCI   7
HUNTINGTON     CLOUDY    25  14  63 VRB6      30.42R WCI  18
CHARLESTON     FLURRIES  24  13  62 NW7       30.40R WCI  16
PINEVILLE*     FLURRIES  27  17  64 MISG      30.35R
BECKLEY        LGT SNOW  20  14  77 N15       30.25R WCI   6
BLUEFIELD      CLOUDY    21  11  65 NW12      30.22S WCI   9
LOGAN CO APT*  CLOUDY    23  16  74 NW3G13    30.34R
$$

VAZ002-007-008-TNZ017-027-036-066-071-090800
...SOUTHWEST VIRGINIA/EAST TENNESSEE...

CITY           SKY/WX    TMP DP  RH WIND       PRES   REMARKS
WISE*          CLOUDY    23  14  68 W9        30.28S WCI  13
JONESVILLE*    CLOUDY    27  16  63 W7        30.41R WCI  19
ABINGDON*      CLOUDY    27  14  58 NW7       30.30S WCI  19
BRISTOL        PTCLDY    26  14  60 NW8       30.34S WCI  18
MORRISTOWN*    CLOUDY    27  16  63 NW7       30.38R WCI  19
SEVIERVILLE*   SUNNY     25  14  63 CALM      30.41R
KNOXVILLE      CLEAR     28  16  60 N5        30.42R WCI  23
OAK RIDGE      PTCLDY    27  16  63 CALM      30.44R
CROSSVILLE     CLEAR     21  14  74 NW8       30.40R WCI  11
NASHVILLE      CLEAR     25  14  63 NW7       30.53S WCI  17
$$

...KEY TO REMARKS...
VSB - VISIBILITY IN MILES
WCI - WIND CHILL INDEX
HX  - HEAT INDEX

$$



USA.gov is the U.S. government's official web portal to all federal, state and local government web resources and services.